Hourly Data Report for October 02, 2017

All times are specified in Local Standard Time (LST). Add 1 hour to adjust for Daylight Saving Time where and when it is observed.

POWELL RIVER
BRITISH COLUMBIA

49°50'04.400" N
124°29'48.500" W
125.00 m
1046392
71720
VOP

Download Data

Hourly Data (October 2017)
Hourly Data Report for October 2, 2017
Temp Definition
°C
Dew Point Temp Definition
°C
Rel Hum Definition
%
Wind Dir Definition
10's deg

Wind Spd Definition
km/h
Visibility Definition
km
Stn Press Definition
kPa
Hmdx Definition


Wind Chill Definition


Weather Definition


TIME
00:00 5.9 5.2 95 LegendMM LegendMM   100.58     LegendNANA
01:00 5.8 5.1 95 LegendMM LegendMM   100.59     LegendNANA
02:00 6.6 6.1 97 LegendMM LegendMM   100.62     LegendNANA
03:00 6.4 5.9 97 LegendMM LegendMM   100.63     LegendNANA
04:00 5.4 5.1 98 LegendMM LegendMM   100.67     LegendNANA
05:00 4.5 4.2 98 LegendMM LegendMM   100.68     LegendNANA
06:00 4.7 4.4 98 LegendMM LegendMM   100.69     LegendNANA
07:00 5.7 5.4 98 LegendMM LegendMM   100.72     LegendNANA
08:00 7.2 6.9 98 LegendMM LegendMM   100.74     LegendNANA
09:00 10.5 8.9 90 LegendMM LegendMM   100.77     LegendNANA
10:00 11.6 7.6 77 LegendMM LegendMM   100.79     LegendNANA
11:00 12.9 7.1 68 LegendMM LegendMM   100.81     LegendNANA
12:00 14.3 6.5 60 LegendMM LegendMM   100.82     LegendNANA
13:00 15.6 5.2 50 LegendMM LegendMM   100.82     LegendNANA
14:00 17.0 4.3 43 LegendMM LegendMM   100.80     LegendNANA
15:00 17.7 1.8 34 LegendMM LegendMM   100.80     LegendNANA
16:00 17.4 3.1 39 LegendMM LegendMM   100.81     LegendNANA
17:00 16.4 3.8 43 LegendMM LegendMM   100.82     LegendNANA
18:00 14.3 4.9 53 LegendMM LegendMM   100.84     LegendNANA
19:00 10.3 5.5 72 LegendMM LegendMM   100.88     LegendNANA
20:00 7.9 5.2 83 LegendMM LegendMM   100.92     LegendNANA
21:00 7.1 4.2 82 LegendMM LegendMM   100.98     LegendNANA
22:00 6.4 4.2 85 LegendMM LegendMM   101.01     LegendNANA
23:00 5.3 3.6 89 LegendMM LegendMM   101.03     LegendNANA

Notes on Data Quality.

Legend

  • E = Estimated
  • M = Missing
  • NA = Not Available
  • ‡ = Partner data that is not subject to review by the National Climate Archives
Date modified: